Total_Precipitation_Accumulation
0.70 0.72 0.71 0.61 0.49 0.47 0.47 0.45 0.45 0.49 0.55 0.56 0.58 0.64 0.65 0.66 0.68 0.69 0.74 0.79 0.86 0.97 1.03 1.14 1.34 1.53 1.58 1.57 1.59 1.61 1.58 1.44 1.21 1.11 0.92 0.90 1.03 1.05 1.04 0.98 1.02 1.07 0.88
0.65 0.62 0.58 0.51 0.44 0.43 0.41 0.38 0.39 0.44 0.47 0.48 0.54 0.58 0.57 0.62 0.65 0.65 0.64 0.65 0.74 0.83 0.84 0.85 0.95 1.17 1.32 1.42 1.47 1.49 1.53 1.52 1.36 1.31 1.22 1.02 0.99 1.05 1.15 1.22 1.14 1.09 1.06
0.70 0.60 0.56 0.52 0.49 0.47 0.42 0.41 0.41 0.47 0.58 0.61 0.61 0.64 0.61 0.63 0.62 0.63 0.66 0.66 0.69 0.75 0.78 0.80 0.86 0.96 1.10 1.18 1.28 1.37 1.44 1.55 1.51 1.32 1.34 1.30 1.13 1.10 1.14 1.21 1.24 1.30 1.21
0.90 0.77 0.68 0.61 0.54 0.48 0.44 0.43 0.42 0.45 0.51 0.54 0.62 0.70 0.78 0.83 0.81 0.76 0.74 0.72 0.68 0.70 0.77 0.84 0.85 0.86 0.96 1.18 1.30 1.36 1.39 1.48 1.58 1.49 1.41 1.40 1.27 1.18 1.17 1.19 1.32 1.39 1.38
0.92 0.80 0.66 0.55 0.45 0.43 0.46 0.49 0.46 0.41 0.44 0.45 0.52 0.61 0.71 0.80 0.85 0.83 0.69 0.59 0.61 0.66 0.66 0.67 0.76 0.83 0.85 0.99 1.15 1.37 1.38 1.46 1.52 1.56 1.47 1.34 1.24 1.16 1.11 1.10 1.19 1.37 1.41
0.74 0.70 0.54 0.48 0.43 0.39 0.42 0.48 0.49 0.39 0.38 0.39 0.43 0.42 0.44 0.49 0.64 0.63 0.51 0.43 0.50 0.59 0.66 0.69 0.69 0.70 0.72 0.75 0.78 1.02 1.21 1.31 1.38 1.38 1.40 1.29 1.19 1.12 1.19 1.17 1.11 1.18 1.29
0.45 0.45 0.36 0.34 0.41 0.42 0.45 0.44 0.38 0.31 0.34 0.36 0.31 0.27 0.29 0.32 0.37 0.35 0.40 0.43 0.47 0.52 0.60 0.69 0.74 0.71 0.77 0.85 0.81 0.84 0.93 0.99 1.09 1.19 1.20 1.15 1.13 1.08 1.14 1.18 1.14 1.08 1.00
0.20 0.17 0.14 0.21 0.30 0.32 0.30 0.28 0.23 0.23 0.28 0.36 0.31 0.29 0.32 0.28 0.30 0.34 0.37 0.41 0.55 0.61 0.60 0.61 0.72 0.78 0.83 0.98 0.97 1.04 0.97 0.86 0.84 0.88 0.98 1.02 0.99 1.09 1.16 1.30 1.33 1.19 1.10
0.02 0.02 0.04 0.05 0.06 0.06 0.06 0.07 0.11 0.15 0.20 0.18 0.22 0.37 0.37 0.33 0.40 0.38 0.32 0.41 0.54 0.62 0.57 0.60 0.72 0.82 0.95 1.04 1.09 1.12 1.01 0.91 0.94 1.00 1.05 1.09 1.11 1.18 1.23 1.27 1.29 1.26 1.19
0.00 0.00 0.00 0.01 0.01 0.01 0.01 0.01 0.03 0.06 0.09 0.10 0.14 0.27 0.33 0.34 0.34 0.24 0.25 0.38 0.51 0.60 0.61 0.62 0.83 0.84 0.91 0.95 1.01 1.12 1.13 0.99 0.92 0.93 0.98 1.01 1.01 1.09 1.23 1.24 1.31 1.34 1.21
0.00 0.00 0.00 0.01 0.01 0.01 0.02 0.01 0.01 0.01 0.02 0.05 0.10 0.13 0.14 0.15 0.14 0.14 0.20 0.27 0.35 0.48 0.57 0.61 0.58 0.69 0.70 0.80 0.90 0.97 1.17 1.04 0.97 0.99 0.98 0.90 0.87 0.93 1.02 1.15 1.26 1.30 1.21
0.00 0.00 0.00 0.01 0.01 0.01 0.03 0.02 0.01 0.01 0.01 0.03 0.06 0.09 0.08 0.07 0.06 0.07 0.09 0.13 0.19 0.28 0.38 0.49 0.49 0.55 0.59 0.67 0.69 0.85 1.01 0.98 0.94 1.00 0.99 0.92 0.85 0.83 0.85 0.90 1.02 1.07 1.03
0.00 0.01 0.00 0.00 0.01 0.01 0.01 0.01 0.01 0.01 0.01 0.02 0.04 0.07 0.08 0.09 0.07 0.07 0.07 0.09 0.14 0.18 0.22 0.37 0.44 0.49 0.48 0.50 0.62 0.78 0.83 0.89 1.02 0.98 0.98 0.91 0.84 0.80 0.73 0.76 0.85 0.91 0.88
0.00 0.00 0.00 0.00 0.01 0.01 0.01 0.01 0.01 0.01 0.02 0.02 0.03 0.05 0.09 0.11 0.07 0.07 0.09 0.12 0.14 0.16 0.19 0.32 0.44 0.50 0.49 0.48 0.55 0.67 0.73 0.86 0.99 0.92 0.88 0.83 0.76 0.75 0.71 0.70 0.74 0.77 0.80
0.00 0.00 0.00 0.01 0.01 0.01 0.01 0.01 0.01 0.01 0.02 0.02 0.03 0.04 0.04 0.05 0.05 0.07 0.10 0.13 0.15 0.15 0.24 0.42 0.57 0.58 0.57 0.53 0.56 0.65 0.64 0.62 0.71 0.70 0.72 0.73 0.70 0.68 0.64 0.59 0.60 0.61 0.63
0.00 0.00 0.00 0.01 0.01 0.01 0.02 0.02 0.01 0.02 0.02 0.03 0.03 0.03 0.03 0.04 0.06 0.09 0.14 0.18 0.19 0.25 0.42 0.62 0.73 0.79 0.77 0.69 0.64 0.62 0.57 0.55 0.56 0.59 0.66 0.65 0.61 0.63 0.62 0.56 0.55 0.55 0.55
0.00 0.00 0.00 0.00 0.01 0.01 0.01 0.02 0.03 0.03 0.02 0.02 0.02 0.03 0.03 0.05 0.09 0.16 0.23 0.26 0.31 0.51 0.72 0.77 0.78 0.80 0.81 0.71 0.59 0.53 0.42 0.37 0.40 0.46 0.48 0.49 0.50 0.49 0.52 0.51 0.50 0.48 0.45
0.00 0.00 0.00 0.01 0.01 0.01 0.01 0.01 0.03 0.05 0.05 0.04 0.03 0.03 0.03 0.06 0.12 0.22 0.34 0.45 0.50 0.64 0.78 0.80 0.86 0.82 0.76 0.61 0.45 0.36 0.27 0.24 0.26 0.28 0.29 0.26 0.30 0.33 0.37 0.42 0.44 0.42 0.38
0.01 0.01 0.01 0.01 0.02 0.02 0.02 0.02 0.03 0.03 0.03 0.04 0.05 0.05 0.05 0.06 0.09 0.14 0.21 0.26 0.28 0.35 0.43 0.48 0.51 0.49 0.43 0.33 0.24 0.19 0.13 0.12 0.13 0.15 0.17 0.18 0.21 0.22 0.22 0.27 0.33 0.38 0.38
0.01 0.01 0.02 0.02 0.03 0.03 0.03 0.03 0.03 0.04 0.04 0.04 0.04 0.05 0.06 0.09 0.10 0.10 0.10 0.11 0.13 0.14 0.17 0.18 0.17 0.15 0.13 0.11 0.09 0.08 0.09 0.09 0.09 0.10 0.14 0.16 0.18 0.19 0.18 0.19 0.22 0.25 0.28
0.02 0.03 0.03 0.03 0.04 0.04 0.04 0.04 0.05 0.05 0.05 0.04 0.04 0.05 0.07 0.09 0.10 0.11 0.11 0.11 0.11 0.10 0.09 0.10 0.09 0.08 0.06 0.05 0.05 0.05 0.06 0.07 0.07 0.08 0.09 0.10 0.12 0.15 0.17 0.19 0.20 0.21 0.22
0.03 0.03 0.03 0.04 0.04 0.04 0.04 0.04 0.05 0.06 0.06 0.06 0.06 0.06 0.08 0.11 0.12 0.13 0.12 0.12 0.13 0.13 0.10 0.09 0.08 0.08 0.07 0.06 0.06 0.06 0.06 0.06 0.07 0.07 0.09 0.10 0.12 0.14 0.13 0.14 0.16 0.19 0.19
0.05 0.05 0.05 0.06 0.06 0.06 0.06 0.05 0.06 0.07 0.08 0.08 0.07 0.07 0.08 0.09 0.11 0.12 0.12 0.13 0.14 0.13 0.11 0.10 0.10 0.10 0.08 0.07 0.08 0.08 0.07 0.07 0.07 0.08 0.10 0.12 0.13 0.14 0.15 0.15 0.14 0.14 0.15
0.06 0.06 0.06 0.06 0.07 0.07 0.08 0.08 0.08 0.08 0.09 0.09 0.09 0.09 0.09 0.09 0.10 0.10 0.11 0.12 0.14 0.13 0.12 0.12 0.12 0.11 0.11 0.10 0.10 0.10 0.10 0.09 0.10 0.12 0.14 0.15 0.15 0.17 0.21 0.21 0.18 0.18 0.21
0.07 0.06 0.06 0.07 0.07 0.08 0.08 0.09 0.10 0.10 0.11 0.12 0.12 0.12 0.13 0.13 0.14 0.15 0.16 0.15 0.16 0.16 0.15 0.15 0.14 0.12 0.12 0.12 0.12 0.12 0.14 0.14 0.12 0.13 0.15 0.17 0.18 0.20 0.23 0.23 0.22 0.22 0.23
0.06 0.07 0.07 0.08 0.08 0.08 0.08 0.09 0.10 0.13 0.14 0.15 0.15 0.16 0.18 0.19 0.18 0.19 0.20 0.20 0.20 0.20 0.19 0.18 0.17 0.15 0.13 0.12 0.12 0.14 0.15 0.15 0.14 0.14 0.16 0.20 0.23 0.23 0.24 0.24 0.22 0.20 0.20